Weather History for KACQ - April, 2013

Change the Weather History Date:

Thursday, April 4, 2013

  Actual Average Record
Temperature  
Mean Temperature 41 °F -  
Max Temperature 50 °F 45 °F 83 °F (1921)
Min Temperature 32 °F 28 °F 10 °F (1975)
Degree Days  
Heating Degree Days 24    
Moisture  
Dew Point 30 °F    
Average Humidity 72    
Maximum Humidity 87    
Minimum Humidity 50    
Precipitation  
Precipitation 0.00 in - - ()
Sea Level Pressure  
Sea Level Pressure 30.10 in    
Wind  
Wind Speed 14 mph (West)    
Max Wind Speed 20 mph    
Max Gust Speed 24 mph    
Visibility 10 miles    
Events      
Averages and records for this station are not official NWS values.
T = Trace of Precipitation, MM = Missing Value Source: NWS Daily Summary

Daily Weather History Graph

Daily Weather History Graph

Search for Another Location

Airport or City:

Trip Planner

Search our weather history database for the weather conditions in past years. The results will help you decide how hot, cold, wet, or windy it might be!

Date:

Astronomy

Apr. 04, 2013 Rise Set
Actual Time 6:49 AM CDT 7:45 PM CDT
Civil Twilight 6:20 AM CDT 8:14 PM CDT
Nautical Twilight 5:45 AM CDT 8:49 PM CDT
Astronomical Twilight 5:08 AM CDT 9:26 PM CDT
Moon 3:28 AM CDT (4/4) 1:53 PM CDT (4/4)
Length of Visible Light 13h 54m
Length of Day
12h 55m
Waning Crescent, 33% of the Moon is Illuminated
Apr 4
Waning Crescent
Apr 10
New
Apr 18
First Quarter
Apr 25
Full
May 2
Last Quarter

Hourly Weather History & Observations

Time (CDT) Temp. Windchill Dew Point Humidity Pressure Visibility Wind Dir Wind Speed Gust Speed Precip Events Conditions
12:16 AM 35.6 °F 24.8 °F 26.6 °F 70% 30.13 in 10.0 mi South 19.6 mph - N/A   Clear
12:36 AM 35.6 °F 24.8 °F 26.6 °F 70% 30.12 in 10.0 mi South 19.6 mph 24.2 mph N/A   Clear
1:16 AM 35.6 °F 24.8 °F 26.6 °F 70% 30.12 in 10.0 mi South 19.6 mph - N/A   Clear
1:36 AM 35.6 °F 26.2 °F 28.4 °F 75% 30.12 in 10.0 mi South 15.0 mph - N/A   Clear
1:56 AM 35.6 °F 25.9 °F 28.4 °F 75% 30.13 in 10.0 mi South 16.1 mph - N/A   Clear
2:16 AM 35.6 °F 26.2 °F 28.4 °F 75% 30.12 in 10.0 mi SSW 15.0 mph - N/A   Clear
2:36 AM 35.6 °F 26.2 °F 28.4 °F 75% 30.11 in 10.0 mi South 15.0 mph - N/A   Clear
2:56 AM 35.6 °F 26.2 °F 28.4 °F 75% 30.11 in 10.0 mi SSW 15.0 mph - N/A   Clear
3:16 AM 35.6 °F 25.9 °F 28.4 °F 75% 30.11 in 10.0 mi SSW 16.1 mph 20.7 mph N/A   Clear
3:36 AM 35.6 °F 25.9 °F 28.4 °F 75% 30.10 in 10.0 mi SSW 16.1 mph - N/A   Clear
3:56 AM 35.6 °F 25.5 °F 28.4 °F 75% 30.09 in 10.0 mi SSW 17.3 mph 21.9 mph N/A   Clear
4:16 AM 35.6 °F 25.5 °F 28.4 °F 75% 30.08 in 10.0 mi SSW 17.3 mph 24.2 mph N/A   Clear
4:36 AM 35.6 °F 25.2 °F 28.4 °F 75% 30.07 in 10.0 mi SSW 18.4 mph - N/A   Scattered Clouds
4:56 AM 35.6 °F 25.9 °F 28.4 °F 75% 30.07 in 10.0 mi SSW 16.1 mph - N/A   Clear
5:16 AM 35.6 °F 25.9 °F 28.4 °F 75% 30.07 in 10.0 mi SSW 16.1 mph - N/A   Clear
5:36 AM 35.6 °F 26.6 °F 28.4 °F 75% 30.07 in 10.0 mi SW 13.8 mph - N/A   Mostly Cloudy
5:56 AM 35.6 °F 27.5 °F 30.2 °F 81% 30.06 in 10.0 mi SSW 11.5 mph - N/A   Overcast
6:16 AM 35.6 °F 28.0 °F 28.4 °F 75% 30.07 in 10.0 mi WSW 10.4 mph - N/A   Overcast
6:36 AM 35.6 °F 28.0 °F 30.2 °F 81% 30.08 in 10.0 mi WSW 10.4 mph - N/A   Overcast
6:56 AM 35.6 °F 28.6 °F 30.2 °F 81% 30.08 in 10.0 mi WSW 9.2 mph - N/A   Overcast
7:15 AM 35.6 °F 28.0 °F 30.2 °F 81% 30.08 in 10.0 mi SW 10.4 mph - N/A   Mostly Cloudy
7:36 AM 35.6 °F 27.5 °F 30.2 °F 81% 30.08 in 10.0 mi SW 11.5 mph - N/A   Overcast
7:56 AM 35.6 °F 28.0 °F 30.2 °F 81% 30.08 in 10.0 mi SW 10.4 mph - N/A   Overcast
8:16 AM 35.6 °F 27.5 °F 30.2 °F 81% 30.08 in 10.0 mi SW 11.5 mph - N/A   Overcast
8:36 AM 35.6 °F 28.6 °F 32.0 °F 87% 30.09 in 10.0 mi WSW 9.2 mph - N/A   Overcast
8:56 AM 35.6 °F 28.6 °F 32.0 °F 87% 30.09 in 10.0 mi WSW 9.2 mph - N/A   Overcast
9:16 AM 35.6 °F 27.1 °F 32.0 °F 87% 30.08 in 10.0 mi WSW 12.7 mph - N/A   Overcast
9:36 AM 35.6 °F 29.2 °F 32.0 °F 87% 30.08 in 10.0 mi WSW 8.1 mph - N/A   Overcast
9:56 AM 35.6 °F 29.9 °F 32.0 °F 87% 30.08 in 10.0 mi West 6.9 mph - N/A   Mostly Cloudy
10:16 AM 37.4 °F 29.3 °F 32.0 °F 81% 30.09 in 7.0 mi WNW 12.7 mph - N/A   Scattered Clouds
10:36 AM 39.2 °F 31.2 °F 33.8 °F 81% 30.09 in 10.0 mi WNW 13.8 mph 17.3 mph N/A   Scattered Clouds
10:57 AM 41.0 °F 33.9 °F 33.8 °F 76% 30.09 in 7.0 mi West 12.7 mph - N/A   Clear
11:36 AM 41.0 °F 34.3 °F 33.8 °F 76% 30.09 in 10.0 mi NW 11.5 mph - N/A   Mostly Cloudy
11:57 AM 42.8 °F 35.8 °F 32.0 °F 66% 30.10 in 10.0 mi NW 13.8 mph 19.6 mph N/A   Scattered Clouds
12:16 PM 44.6 °F 38.1 °F 33.8 °F 66% 30.09 in 10.0 mi NW 13.8 mph 19.6 mph N/A   Clear
12:36 PM 44.6 °F 37.4 °F 33.8 °F 66% 30.09 in 10.0 mi NW 16.1 mph - N/A   Clear
12:56 PM 46.4 °F 40.4 °F 32.0 °F 57% 30.10 in 10.0 mi NW 13.8 mph 19.6 mph N/A   Clear
1:16 PM 46.4 °F 40.1 °F 33.8 °F 62% 30.10 in 10.0 mi NW 15.0 mph - N/A   Clear
1:37 PM 48.2 °F - 33.8 °F 58% 30.10 in 10.0 mi NW 17.3 mph - N/A   Clear
2:16 PM 48.2 °F - 33.8 °F 58% 30.09 in 10.0 mi WNW 12.7 mph 19.6 mph N/A   Scattered Clouds
2:36 PM 50.0 °F - 35.6 °F 58% 30.09 in 10.0 mi NNW 17.3 mph - N/A   Scattered Clouds
2:56 PM 50.0 °F - 32.0 °F 50% 30.09 in 10.0 mi NNW 16.1 mph 21.9 mph N/A   Clear
3:17 PM 48.2 °F - 32.0 °F 54% 30.09 in 10.0 mi North 15.0 mph 24.2 mph N/A   Clear
3:36 PM 50.0 °F - 32.0 °F 50% 30.09 in 10.0 mi North 15.0 mph 18.4 mph N/A   Clear
3:56 PM 48.2 °F - 32.0 °F 54% 30.08 in 10.0 mi NNW 12.7 mph 21.9 mph N/A   Clear
4:17 PM 48.2 °F - 32.0 °F 54% 30.08 in 10.0 mi NNW 18.4 mph - N/A   Clear
4:36 PM 48.2 °F - 32.0 °F 54% 30.09 in 10.0 mi NNW 12.7 mph 20.7 mph N/A   Clear
4:56 PM 48.2 °F - 32.0 °F 54% 30.08 in 10.0 mi NW 15.0 mph 19.6 mph N/A   Clear
5:16 PM 48.2 °F - 32.0 °F 54% 30.09 in 10.0 mi NNW 16.1 mph - N/A   Clear
5:37 PM 46.4 °F 40.1 °F 32.0 °F 57% 30.09 in 10.0 mi NNW 15.0 mph 20.7 mph N/A   Clear
5:56 PM 44.6 °F 38.4 °F 30.2 °F 57% 30.09 in 10.0 mi NNW 12.7 mph - N/A   Clear
6:16 PM 44.6 °F 38.4 °F 30.2 °F 57% 30.10 in 10.0 mi NW 12.7 mph - N/A   Clear
6:37 PM 44.6 °F 38.8 °F 32.0 °F 61% 30.11 in 10.0 mi NNW 11.5 mph 17.3 mph N/A   Clear
6:56 PM 42.8 °F 36.2 °F 32.0 °F 66% 30.11 in 10.0 mi NW 12.7 mph - N/A   Clear
7:16 PM 41.0 °F 34.3 °F 30.2 °F 65% 30.11 in 10.0 mi NNW 11.5 mph - N/A   Clear
7:37 PM 41.0 °F 36.4 °F 32.0 °F 70% 30.11 in 10.0 mi NW 6.9 mph - N/A   Clear
7:56 PM 37.4 °F 30.3 °F 30.2 °F 75% 30.11 in 10.0 mi WNW 10.4 mph - N/A   Clear
8:16 PM 37.4 °F 30.8 °F 30.2 °F 75% 30.12 in 10.0 mi NW 9.2 mph - N/A   Clear
8:37 PM 35.6 °F 29.2 °F 30.2 °F 81% 30.12 in 10.0 mi NW 8.1 mph - N/A   Clear
8:56 PM 35.6 °F 29.2 °F 30.2 °F 81% 30.13 in 10.0 mi WNW 8.1 mph - N/A   Clear
9:16 PM 35.6 °F 28.6 °F 30.2 °F 81% 30.15 in 10.0 mi NW 9.2 mph - N/A   Clear
9:37 PM 33.8 °F 26.4 °F 30.2 °F 87% 30.16 in 10.0 mi WNW 9.2 mph - N/A   Clear
9:56 PM 33.8 °F 27.0 °F 28.4 °F 81% 30.16 in 10.0 mi WNW 8.1 mph - N/A   Clear
10:16 PM 33.8 °F 27.7 °F 28.4 °F 81% 30.16 in 10.0 mi NW 6.9 mph - N/A   Clear
10:37 PM 32.0 °F 25.6 °F 26.6 °F 80% 30.16 in 10.0 mi NW 6.9 mph - N/A   Clear
10:56 PM 32.0 °F 24.8 °F 26.6 °F 80% 30.17 in 10.0 mi NW 8.1 mph - N/A   Clear
11:16 PM 32.0 °F 25.6 °F 26.6 °F 80% 30.17 in 10.0 mi NW 6.9 mph - N/A   Clear
11:36 PM 32.0 °F 24.8 °F 28.4 °F 87% 30.17 in 10.0 mi NW 8.1 mph - N/A   Clear
11:56 PM 32.0 °F 24.8 °F 26.6 °F 80% 30.18 in 10.0 mi NW 8.1 mph - N/A   Clear